Location: Clanezzo
(45.7500°N, 9.6000°E)
Time: 03:58:04
(UTC+00:00)

ESTCUBE 1 - Pass Details

Date: 30 June 2022
Orbit: 646 x 657 km, 97.9° (Epoch: 13 August)

Event Time Altitude Azimuth Distance (km) Brightness Sun altitude
Exits shadow 22:45:13 12° 242° (WSW) 1,905 ? -20.5°
Maximum altitude 22:47:08 15° 270° (W) 1,725 ? -20.6°
Drops below altitude 10° 22:49:46 10° 306° (NW) 2,055 ? -20.7°
Sets 22:52:53 0° 330° (NNW) 2,974 ? -20.7°
